Terminal Aerodrome Forecast
Issued by NWS Jackson, MS

Home | Current Version | Previous Version | Text Only | Print | Product List | Glossary On
Versions: 1 2 3 4 5 6 7 8 9 10 11 12 13
000
FTUS44 KMEG 220540
TAFTUP
TAF
KTUP 220540Z 2206/2306 19006KT P6SM OVC006
      TEMPO 2207/2211 4SM -DZ BR
     FM221500 19012KT P6SM VCSH BKN009 OVC025
     FM222100 18009KT 5SM SHRA VCTS BKN010 OVC015CB
      TEMPO 2221/2301 3SM TSRA OVC009CB
     FM230300 22009KT 5SM -SHRA OVC005=

USA.gov is the U.S. government's official web portal to all federal, state and local government web resources and services.